Back to catalog

STARLINK-34317

AliveCommunicationsSSO
NORAD 64162·PAYLOAD·🇺🇸 United States

Launched May 27, 2025 from Vandenberg Space Force Base

Loading…

Next Passes (next 24 hours)

TLE

FreshSource: CelesTrak SupGP

Epoch: Sep 14, 2026, 15:23 UTC

1 64162C 25112S   26257.64145833  .00002919  00000+0  90606-4 0  2578
2 64162  97.2839 304.8194 0000895 106.5537 183.0076 15.33443799    11

Track STARLINK-34317 in real time with AllMySat

Download on the App Store